Location: Lake Sonoma
(38.7200°N, 123.0564°W)
Time: 21:58:40
(UTC-08:00)

Daily predictions for brighter satellites

Satellite Brightness Start Highest point End
(mag) Time Altitude Azimuth Time Altitude Azimuth Time Altitude Azimuth
SJ-12 4.0 17:14:42 10° SSE 17:18:50 88° E 17:23:00 10° NNW
Cosmos 2242 Rocket 4.4 17:14:55 10° SSW 17:19:24 58° W 17:23:53 10° N
Cosmos 2233 Rocket 4.0 17:18:11 10° S 17:24:26 78° E 17:30:39 10° N
Sich 1 Rocket 4.0 17:22:10 10° N 17:26:22 41° ENE 17:30:35 10° SSE
CSL-04 Debris 4.2 17:23:11 10° SSE 17:28:34 67° ENE 17:33:56 10° N
Cosmos 1763 Rocket 3.6 17:25:13 10° NNW 17:30:26 85° WSW 17:35:32 10° SSE
Lacrosse 5 4.2 17:30:15 10° NNW 17:31:11 10° N 17:32:06 10° N
Cosmos 44 4.2 17:28:35 10° N 17:32:37 27° NE 17:36:49 10° ESE
AQUARIUS 4.1 17:30:14 10° SSE 17:34:40 65° ENE 17:39:08 10° N
Cosmos 1833 Rocket 3.0 17:31:33 10° N 17:36:54 43° ENE 17:42:13 10° SE
USA 161 4.2 17:39:20 10° WNW 17:39:53 11° WNW 17:40:27 10° W
Cosmos 405 4.5 17:39:37 10° NNE 17:42:07 18° ENE 17:44:36 10° ESE
USA 116 3.9 17:37:58 10° NNE 17:42:09 54° E 17:45:49 10° S
SL-27 R/B 2.2 17:40:00 10° NNW 17:43:20 73° ENE 17:46:42 10° SSE
Cosmos 1782 Rocket 3.8 17:40:14 10° N 17:44:25 44° E 17:48:35 10° SSE
CORIOLIS 4.1 17:39:14 10° SSE 17:44:39 72° ENE 17:50:05 10° N
Tiangong 1 2.5 17:42:56 10° SSW 17:44:53 19° SSE 17:46:16 13° ESE
Cosmos 2297 3.8 17:40:27 10° S 17:46:05 65° ESE 17:51:46 10° NNE
BREEZE-M R/B 2.4 17:44:44 10° NW 17:47:24 61° NE 17:51:46 10° ESE
Cosmos 2278 Rocket 3.1 17:42:48 10° SW 17:48:18 50° WNW 17:53:49 10° NNE
ALOS 3.3 17:44:50 10° ESE 17:48:34 24° ENE 17:52:19 10° NNE
Meteor 1-28 Rocket 3.1 17:45:27 10° NNE 17:49:11 83° ESE 17:52:53 10° S
YAOGAN 1 2.7 17:45:20 10° SSE 17:49:29 49° ENE 17:53:41 10° N
Cosmos 540 Rocket 3.5 17:45:41 10° N 17:50:46 55° ENE 17:55:49 10° SSE
COSMO-SKYMED 1 3.0 17:47:56 10° NNE 17:52:01 39° E 17:56:05 10° SSE
BREEZE-M DEB (TANK) 3.7 17:43:13 10° WNW 17:52:03 58° SW 17:55:26 10° SE
SMAP 3.3 17:50:06 10° S 17:54:44 75° WSW 17:59:24 10° NNW
Cosmos 1606 2.6 17:51:50 10° S 17:55:36 88° E 17:59:23 10° N
Cosmos 1441 Rocket 4.0 17:53:21 10° SSE 17:56:52 31° E 17:59:39 14° NE
Cosmos 968 Rocket 4.2 17:52:37 10° SSE 17:57:08 31° E 18:00:45 15° NE
Landsat 4 3.6 17:58:24 10° NNE 18:02:13 82° ESE 18:06:01 10° S
Ariane Rocket 3.7 17:57:51 10° S 18:02:51 58° WSW 18:07:52 10° NNW
Cosmos 1503 Rocket 4.0 17:57:44 10° SSW 18:03:01 87° WNW 18:08:16 10° NNE
USA 234 3.6 18:01:49 17° ENE 18:06:41 46° SE 18:12:54 10° SSW
Cosmos 841 Rocket 4.5 18:02:48 10° NNW 18:07:54 51° WSW 18:12:57 10° S
Cosmos 1484 Rocket 4.1 18:04:31 10° S 18:08:12 43° W 18:11:59 10° NNW
Cosmos 1891 Rocket 4.4 18:02:56 10° S 18:08:59 63° E 18:14:59 10° NNE
Cosmos 1703 Rocket 4.3 18:06:30 10° SSW 18:10:53 56° W 18:15:17 10° N
CZ-4C R/B 3.3 18:04:08 10° NNW 18:10:55 43° NE 18:18:12 11° ESE
EO 1 Del DPAF 3.2 18:07:36 10° NNE 18:11:24 62° E 18:15:10 10° S
Meteor 1-11 Rocket 4.0 18:07:23 10° N 18:12:58 45° ENE 18:18:22 10° SSE
METEOR-M 4.0 18:09:27 10° SSE 18:14:46 77° ENE 18:20:07 10° N
Cosmos 836 Rocket 4.5 18:09:29 10° NNW 18:14:46 88° ENE 18:20:03 10° SSE
IRS-1A Rocket 4.5 18:09:11 10° S 18:15:00 79° WSW 18:20:44 10° NNW
Cosmos 2221 Rocket 3.6 18:11:04 10° S 18:15:28 82° W 18:19:54 10° N
ERS-2 2.0 18:12:28 10° SSE 18:16:07 79° ENE 18:19:48 10° N
Cosmos 2151 Rocket 4.1 18:15:45 10° N 18:19:49 35° ENE 18:23:53 10° SE
CZ-4 R/B 2.5 18:17:18 10° S 18:20:59 43° W 18:24:40 10° NNW
SKYMED 3 4.5 18:17:42 10° NNE 18:22:04 89° ESE 18:26:24 10° SSW
Nadezhda 4 Rocket 4.1 18:18:31 10° N 18:24:25 48° E 18:30:17 10° SSE
OAO 3 Rocket 3.9 18:19:46 10° WSW 18:24:26 44° SSE 18:26:33 28° ESE
Cosmos 1602 3.5 18:23:47 10° N 18:27:39 78° E 18:31:30 10° S
Meteor 2-20 4.3 18:22:30 10° N 18:28:34 66° E 18:34:34 10° SSE
Cosmos 1633 4.1 18:25:30 10° NNW 18:28:56 38° W 18:32:21 10° SSW
Cosmos 2082 Rocket 2.4 18:24:03 10° NNW 18:29:43 71° WSW 18:35:19 10° SSE
Cosmos 2034 Rocket 4.0 18:25:46 10° S 18:32:08 83° E 18:38:30 10° N
Cosmos 405 Rocket 3.0 18:28:52 10° SSW 18:32:37 66° W 18:35:43 14° N
Okean 2 Rocket 3.2 18:28:11 10° N 18:32:43 81° W 18:37:13 10° S
MOS 1 4.3 18:28:23 10° SSE 18:34:05 83° WSW 18:39:50 10° NNW
Gblst 52 Del rocket 4.5 18:31:38 10° SSW 18:36:56 49° SE 18:38:34 38° E
PKM 4.5 18:27:50 10° SW 18:37:11 83° SE 18:38:31 43° NE
SKYMED 2 4.2 18:35:49 10° N 18:40:04 57° WNW 18:44:19 10° SSW
Timation 2 Rocket 4.0 18:36:39 10° NNW 18:43:21 61° ENE 18:48:29 16° SE
BREEZE-M DEB (TANK) 3.7 18:41:32 10° W 18:43:16 27° NNW 18:43:16 27° NNW
Cosmos 1092 Rocket 4.1 18:37:41 10° N 18:43:37 47° ENE 18:49:33 10° SSE
Cosmos 1674 Rocket 4.5 18:41:36 10° SSE 18:44:15 32° SE 18:44:15 32° SE
Cosmos 783 Rocket 4.4 18:40:42 10° NNW 18:46:03 85° ENE 18:51:22 10° SSE
GPS 2-05 Rocket1 3.7 18:44:02 10° WSW 18:46:32 40° SSW 18:46:32 40° SSW
ISS -1.5 18:47:03 10° SSW 18:48:04 17° S 18:48:04 17° S
SPOT 3 Rocket 3.9 18:47:53 10° S 18:53:04 67° WSW 18:58:16 10° NNW
Cosmos 44 Rocket 3.7 18:50:15 10° NW 18:55:05 62° WSW 19:00:01 10° SSE
USA 229 DEB 3.6 18:48:51 10° SSW 18:55:30 67° ESE 18:57:42 44° NE
USA 229 3.6 18:48:58 10° SSW 18:55:36 67° ESE 18:57:45 44° NE
FengYun 1-2 T 4.1 18:53:00 10° SSE 18:58:25 62° ENE 19:03:56 10° N
FENGYUN 3A 3.9 18:54:43 10° S 19:00:06 69° WSW 19:05:31 10° NNW
Atlas 2A Centaur Rocket 4.1 18:48:07 10° WSW 19:00:30 31° SSW 19:02:42 22° SSE
Meteor 1-5 Rocket 3.9 19:03:44 10° N 19:09:05 88° E 19:14:23 10° S
Cosmos 2369 Rocket 2.7 19:17:16 10° SSW 19:21:18 48° S 19:21:18 48° S
Thor Agena Rocket 3.8 19:26:06 63° SW 19:26:06 63° SW 19:30:32 10° SSW
ALOS 4.0 19:21:42 10° SSW 19:25:51 31° W 19:30:00 10° NNW
Cosmos 1943 Rocket 4.3 19:41:13 10° SSW 19:42:16 16° SSW 19:42:16 16° SSW
USA 234 3.7 19:49:10 50° NNW 19:49:41 51° NW 19:55:57 10° WSW
CZ-4C R/B 3.8 19:52:38 10° NW 19:59:40 47° WSW 20:03:36 28° S
